Overview Statistics Trail Chart Weather Telemetry Raw packets
 

This is the latest recevied weather packets stored in our database for station/object WE1C. If no packets are shown the sender has not sent any weather packets the latest 10 day(s).

<< 93 94 95 96 97 98 99 >>
Time Temp. Humidity Pressure Rain* Wind** Luminosity Snow
1787916448 18.89° C 99% 1044.7 hPa 0 mm - 52 W/m² -
1787916144 18.89° C 99% 1044.7 hPa 0 mm - 30 W/m² -
1787915839 18.89° C 99% 1044.4 hPa 0 mm - 16 W/m² -
1787915535 18.89° C 99% 1044.5 hPa 0 mm - 15 W/m² -
1787915229 18.89° C 99% 1044.6 hPa 0 mm - 16 W/m² -
1787914928 18.89° C 99% 1044.7 hPa 0 mm - 19 W/m² -
1787914627 18.89° C 99% 1044.4 hPa 0 mm - 21 W/m² -
1787914322 18.89° C 99% 1044.2 hPa 0 mm - 21 W/m² -
1787914022 18.89° C 99% 1044.2 hPa 0 mm - 19 W/m² -
1787913721 18.89° C 99% 1044.2 hPa 0 mm - 16 W/m² -
1787913416 18.89° C 99% 1044.1 hPa 0 mm - 11 W/m² -
1787913110 18.89° C 99% 1043.9 hPa 0 mm - 6 W/m² -
1787912809 18.89° C 99% 1043.8 hPa 0 mm - 6 W/m² -
1787912504 18.89° C 99% 1044 hPa 0 mm - 3 W/m² -
1787912203 18.89° C 99% 1043.9 hPa 0 mm - 2 W/m² -
1787911898 18.89° C 99% 1043.8 hPa 0 mm - 0 W/m² -
1787911593 18.89° C 99% 1043.8 hPa 0 mm - 0 W/m² -
1787911293 18.89° C 99% 1043.7 hPa 0 mm - 0 W/m² -
1787910989 18.89° C 99% 1044.1 hPa 0 mm - 0 W/m² -
1787910686 18.89° C 99% 1043.6 hPa 0 mm - 0 W/m² -
1787910385 18.89° C 99% 1043.8 hPa 0 mm - 0 W/m² -
1787910081 18.89° C 99% 1043.7 hPa 0 mm - 0 W/m² -
1787909778 18.89° C 99% 1043.6 hPa 0 mm - 0 W/m² -
1787909477 18.89° C 99% 1043.8 hPa 0 mm - 0 W/m² -
1787909172 18.89° C 99% 1043.6 hPa 0 mm - 0 W/m² -

* Rain latest hour (hover to see other rain measurements)
** Current wind speed in m/s (hover to see current wind gust speed)